• In Uzbekistan
  • List of Countries
  • For 7 days
  • Water Temperature
  • Satellite Maps
  • Weather Map
  • Weather Widgets
  • user-avatar
    Login

    Hourly Weather Tashkent

    Today, 24 June, Sunday

    Time Temperature Precipitation Wind Pressure Humidity
    00:00 +28°C° 0.2 mm 3 mps 715 mmHg 30%
    01:00 +27°C° 0.2 mm 3 mps 715 mmHg 32%
    02:00 +27°C° 0.2 mm 3 mps 715 mmHg 34%
    03:00 +26°C° 0.3 mm 3 mps 715 mmHg 37%
    04:00 +25°C° 0.3 mm 3 mps 715 mmHg 40%
    05:00 +24°C° 0 mm 2 mps 715 mmHg 44%
    06:00 +26°C° 0.5 mm 2 mps 715 mmHg 42%
    07:00 +27°C° 0.5 mm 3 mps 715 mmHg 41%
    08:00 +28°C° 0.5 mm 3 mps 716 mmHg 39%
    09:00 +30°C° 0 mm 3 mps 716 mmHg 34%
    10:00 +32°C° 0 mm 4 mps 716 mmHg 28%
    11:00 +34°C° 0 mm 4 mps 716 mmHg 23%
    12:00 +34°C° 0 mm 5 mps 717 mmHg 20%
    13:00 +35°C° 0 mm 5 mps 717 mmHg 18%
    14:00 +36°C° 0 mm 6 mps 717 mmHg 15%
    15:00 +35°C° 0 mm 5 mps 717 mmHg 15%
    16:00 +35°C° 0 mm 5 mps 717 mmHg 14%
    17:00 +35°C° 0 mm 5 mps 717 mmHg 14%
    18:00 +33°C° 0 mm 4 mps 717 mmHg 17%
    19:00 +30°C° 0 mm 3 mps 718 mmHg 20%
    20:00 +28°C° 0 mm 3 mps 718 mmHg 23%
    21:00 +27°C° 0 mm 3 mps 718 mmHg 24%
    22:00 +26°C° 0 mm 3 mps 718 mmHg 25%
    23:00 +25°C° 0 mm 3 mps 719 mmHg 25%

    Tomorrow, 25 June, Monday

    Time Temperature Precipitation Wind Pressure Humidity
    00:00 +25°C° 0 mm 3 mps 718 mmHg 26%
    01:00 +24°C° 0 mm 3 mps 718 mmHg 27%
    02:00 +24°C° 0 mm 2 mps 718 mmHg 28%
    03:00 +23°C° 0 mm 2 mps 718 mmHg 28%
    04:00 +23°C° 0 mm 2 mps 718 mmHg 29%
    05:00 +23°C° 0 mm 2 mps 718 mmHg 29%
    06:00 +25°C° 0 mm 2 mps 718 mmHg 27%
    07:00 +27°C° 0 mm 1 mps 719 mmHg 26%
    08:00 +28°C° 0 mm 1 mps 719 mmHg 24%
    09:00 +29°C° 0 mm 2 mps 719 mmHg 23%
    10:00 +30°C° 0 mm 2 mps 719 mmHg 22%
    11:00 +31°C° 0 mm 3 mps 719 mmHg 21%
    12:00 +33°C° 0 mm 3 mps 719 mmHg 21%
    13:00 +33°C° 0 mm 3 mps 719 mmHg 20%
    14:00 +34°C° 0 mm 4 mps 719 mmHg 20%
    15:00 +34°C° 0 mm 4 mps 718 mmHg 20%
    16:00 +33°C° 0 mm 5 mps 718 mmHg 21%
    17:00 +33°C° 0 mm 5 mps 718 mmHg 22%
    18:00 +32°C° 0 mm 4 mps 718 mmHg 25%
    19:00 +29°C° 0 mm 4 mps 718 mmHg 28%
    20:00 +27°C° 0 mm 3 mps 718 mmHg 31%
    21:00 +26°C° 0 mm 3 mps 718 mmHg 33%
    22:00 +25°C° 0 mm 3 mps 719 mmHg 34%
    23:00 +24°C° 0 mm 3 mps 719 mmHg 35%

    Day after tomorrow, 26 June, Tuesday

    Time Temperature Precipitation Wind Pressure Humidity
    00:00 +24°C° 0 mm 3 mps 718 mmHg 36%
    01:00 +23°C° 0 mm 2 mps 718 mmHg 37%
    02:00 +23°C° 0 mm 2 mps 718 mmHg 38%
    03:00 +21°C° 0 mm 2 mps 718 mmHg 39%
    04:00 +21°C° 0 mm 2 mps 718 mmHg 40%
    05:00 +20°C° 0 mm 2 mps 718 mmHg 41%
    06:00 +23°C° 0 mm 2 mps 718 mmHg 38%
    07:00 +25°C° 0 mm 2 mps 719 mmHg 35%
    08:00 +26°C° 0 mm 1 mps 719 mmHg 32%
    09:00 +28°C° 0 mm 1 mps 719 mmHg 30%
    10:00 +29°C° 0 mm 2 mps 719 mmHg 27%
    11:00 +30°C° 0 mm 2 mps 719 mmHg 24%
    12:00 +31°C° 0 mm 2 mps 719 mmHg 23%
    13:00 +31°C° 0 mm 2 mps 719 mmHg 21%
    14:00 +32°C° 0 mm 2 mps 719 mmHg 19%
    15:00 +33°C° 0 mm 3 mps 719 mmHg 19%
    16:00 +33°C° 0 mm 3 mps 718 mmHg 19%
    17:00 +34°C° 0 mm 3 mps 718 mmHg 19%
    18:00 +31°C° 0 mm 3 mps 718 mmHg 22%
    19:00 +29°C° 0 mm 2 mps 718 mmHg 24%
    20:00 +27°C° 0 mm 2 mps 718 mmHg 27%
    21:00 +27°C° 0 mm 2 mps 718 mmHg 28%
    22:00 +26°C° 0 mm 2 mps 718 mmHg 28%
    23:00 +25°C° 0 mm 2 mps 717 mmHg 29%

    27 June, Wednesday

    Time Temperature Precipitation Wind Pressure Humidity
    00:00 +25°C° 0 mm 2 mps 717 mmHg 29%
    01:00 +24°C° 0 mm 2 mps 717 mmHg 29%
    02:00 +24°C° 0 mm 2 mps 716 mmHg 30%
    03:00 +23°C° 0 mm 2 mps 716 mmHg 30%
    04:00 +23°C° 0 mm 2 mps 716 mmHg 30%
    05:00 +23°C° 0 mm 2 mps 716 mmHg 30%
    06:00 +25°C° 0 mm 2 mps 716 mmHg 28%
    07:00 +27°C° 0 mm 1 mps 717 mmHg 26%
    08:00 +29°C° 0 mm 1 mps 717 mmHg 24%
    09:00 +30°C° 0 mm 1 mps 717 mmHg 22%
    10:00 +31°C° 0 mm 2 mps 717 mmHg 20%
    11:00 +32°C° 0 mm 2 mps 717 mmHg 19%
    12:00 +34°C° 0 mm 2 mps 716 mmHg 18%
    13:00 +35°C° 0 mm 2 mps 716 mmHg 17%
    14:00 +35°C° 0 mm 2 mps 716 mmHg 16%
    15:00 +36°C° 0 mm 2 mps 716 mmHg 16%
    16:00 +36°C° 0 mm 2 mps 716 mmHg 15%
    17:00 +36°C° 0 mm 2 mps 716 mmHg 15%
    18:00 +34°C° 0 mm 2 mps 716 mmHg 18%
    19:00 +31°C° 0 mm 2 mps 716 mmHg 21%
    20:00 +29°C° 0 mm 2 mps 716 mmHg 24%
    21:00 +28°C° 0 mm 3 mps 716 mmHg 26%
    22:00 +27°C° 0 mm 3 mps 716 mmHg 27%
    23:00 +26°C° 0 mm 3 mps 716 mmHg 28%

    28 June, Thursday

    Time Temperature Precipitation Wind Pressure Humidity
    00:00 +26°C° 0 mm 3 mps 716 mmHg 28%
    01:00 +25°C° 0 mm 3 mps 716 mmHg 29%
    02:00 +25°C° 0 mm 3 mps 715 mmHg 29%
    03:00 +25°C° 0 mm 3 mps 715 mmHg 28%
    04:00 +24°C° 0 mm 2 mps 715 mmHg 27%
    05:00 +24°C° 0 mm 2 mps 716 mmHg 26%
    06:00 +26°C° 0 mm 2 mps 716 mmHg 24%
    07:00 +28°C° 0 mm 2 mps 716 mmHg 22%
    08:00 +31°C° 0 mm 2 mps 716 mmHg 21%
    09:00 +32°C° 0 mm 2 mps 716 mmHg 19%
    10:00 +33°C° 0 mm 1 mps 716 mmHg 18%
    11:00 +35°C° 0 mm 1 mps 716 mmHg 17%
    12:00 +35°C° 0 mm 1 mps 716 mmHg 16%
    13:00 +37°C° 0 mm 2 mps 716 mmHg 15%
    14:00 +38°C° 0 mm 2 mps 716 mmHg 14%
    15:00 +38°C° 0 mm 2 mps 715 mmHg 14%
    16:00 +38°C° 0 mm 2 mps 715 mmHg 14%
    17:00 +38°C° 0 mm 3 mps 715 mmHg 14%
    18:00 +36°C° 0 mm 3 mps 715 mmHg 17%
    19:00 +34°C° 0 mm 3 mps 715 mmHg 19%
    20:00 +31°C° 0 mm 3 mps 715 mmHg 22%
    21:00 +30°C° 0 mm 3 mps 715 mmHg 22%
    22:00 +29°C° 0 mm 3 mps 715 mmHg 23%
    23:00 +28°C° 0 mm 3 mps 716 mmHg 23%

    29 June, Friday

    Time Temperature Precipitation Wind Pressure Humidity
    00:00 +28°C° 0 mm 3 mps 716 mmHg 25%
    01:00 +27°C° 0 mm 3 mps 716 mmHg 26%
    02:00 +27°C° 0 mm 3 mps 716 mmHg 27%
    03:00 +26°C° 0 mm 3 mps 716 mmHg 29%
    04:00 +26°C° 0 mm 3 mps 716 mmHg 31%
    05:00 +25°C° 0 mm 2 mps 716 mmHg 34%
    06:00 +26°C° 0 mm 3 mps 717 mmHg 33%
    07:00 +28°C° 0 mm 3 mps 717 mmHg 32%
    08:00 +29°C° 0 mm 3 mps 717 mmHg 31%
    09:00 +31°C° 0 mm 3 mps 717 mmHg 29%
    10:00 +33°C° 0 mm 3 mps 717 mmHg 28%
    11:00 +34°C° 0 mm 3 mps 717 mmHg 26%
    12:00 +35°C° 0 mm 3 mps 717 mmHg 24%
    13:00 +35°C° 0 mm 3 mps 717 mmHg 23%
    14:00 +36°C° 0 mm 4 mps 717 mmHg 21%
    15:00 +36°C° 0 mm 4 mps 717 mmHg 21%
    16:00 +36°C° 0 mm 4 mps 717 mmHg 20%
    17:00 +36°C° 0 mm 4 mps 717 mmHg 20%
    18:00 +34°C° 0 mm 3 mps 717 mmHg 22%
    19:00 +31°C° 0 mm 3 mps 717 mmHg 25%
    20:00 +29°C° 0 mm 2 mps 717 mmHg 27%
    21:00 +28°C° 0 mm 2 mps 717 mmHg 28%
    22:00 +28°C° 0 mm 2 mps 716 mmHg 30%
    23:00 +27°C° 0 mm 2 mps 716 mmHg 31%
    Show more